Location: Beau Repaire
(50.6144°N, 4.0551°E)
Time: 20:48:41
(UTC+00:00)

Cosmos 1805 - Pass Details

Date: 15 May 2026
Orbit: 410 x 414 km, 82.5° (Epoch: 10 June)

Event Time Altitude Azimuth Distance (km) Brightness Sun altitude
Rises 20:30:28 0° 358° (N) 2,381 7.4 -8.9°
Reaches altitude 10° 20:32:41 10° 9° (N) 1,510 6.1 -9.1°
Maximum altitude 20:35:37 30° 73° (ENE) 784 3.9 -9.4°
Enters shadow 20:37:52 14° 130° (SE) 1,257 4.5 -9.7°
